• In Lithuania
  • List of Countries
  • For 7 days
  • Water Temperature
  • Satellite Maps
  • Weather Map
  • Weather Widgets
  • user-avatar
    Login

    Hourly Weather Kipungo

    Today, 22 October, Monday

    Time Temperature Precipitation Wind Pressure Humidity
    00:00 +23°C° 0.4 mm 2 mps 653 mmHg 67%
    01:00 +21°C° 0 mm 2 mps 653 mmHg 72%
    02:00 +22°C° 0.5 mm 1 mps 653 mmHg 75%
    03:00 +21°C° 0.5 mm 1 mps 653 mmHg 78%
    04:00 +21°C° 0.5 mm 1 mps 652 mmHg 81%
    05:00 +22°C° 0.4 mm 1 mps 653 mmHg 78%
    06:00 +21°C° 0.4 mm 2 mps 653 mmHg 74%
    07:00 +23°C° 0 mm 2 mps 654 mmHg 71%
    08:00 +25°C° 0.7 mm 3 mps 654 mmHg 63%
    09:00 +27°C° 0.7 mm 3 mps 655 mmHg 55%
    10:00 +29°C° 0.7 mm 4 mps 655 mmHg 47%
    11:00 +29°C° 0.2 mm 3 mps 655 mmHg 45%
    12:00 +30°C° 0.2 mm 3 mps 654 mmHg 42%
    13:00 +30°C° 0 mm 3 mps 654 mmHg 40%
    14:00 +30°C° 0 mm 2 mps 654 mmHg 39%
    15:00 +30°C° 0 mm 2 mps 654 mmHg 39%
    16:00 +30°C° 0 mm 2 mps 653 mmHg 38%
    17:00 +29°C° 0.5 mm 2 mps 653 mmHg 43%
    18:00 +27°C° 0.5 mm 2 mps 653 mmHg 48%
    19:00 +26°C° 0.5 mm 2 mps 653 mmHg 53%
    20:00 +25°C° 0.4 mm 1 mps 654 mmHg 58%
    21:00 +24°C° 0.4 mm 1 mps 654 mmHg 63%
    22:00 +24°C° 0.4 mm 1 mps 654 mmHg 67%
    23:00 +23°C° 0.4 mm 1 mps 654 mmHg 69%

    Tomorrow, 23 October, Tuesday

    Time Temperature Precipitation Wind Pressure Humidity
    00:00 +23°C° 0.4 mm 1 mps 654 mmHg 71%
    01:00 +23°C° 0.4 mm 2 mps 654 mmHg 73%
    02:00 +21°C° 0.3 mm 2 mps 654 mmHg 75%
    03:00 +21°C° 0.3 mm 2 mps 654 mmHg 77%
    04:00 +21°C° 0.3 mm 2 mps 653 mmHg 78%
    05:00 +21°C° 0.1 mm 2 mps 654 mmHg 77%
    06:00 +21°C° 0.1 mm 2 mps 654 mmHg 75%
    07:00 +21°C° 0.1 mm 3 mps 655 mmHg 74%
    08:00 +25°C° 0 mm 3 mps 656 mmHg 64%
    09:00 +27°C° 0 mm 3 mps 656 mmHg 54%
    10:00 +29°C° 0 mm 3 mps 657 mmHg 44%
    11:00 +30°C° 0 mm 3 mps 656 mmHg 41%
    12:00 +31°C° 0 mm 2 mps 656 mmHg 38%
    13:00 +31°C° 0 mm 2 mps 656 mmHg 35%
    14:00 +31°C° 0.1 mm 2 mps 655 mmHg 38%
    15:00 +30°C° 0.1 mm 1 mps 654 mmHg 41%
    16:00 +29°C° 0.1 mm 1 mps 654 mmHg 44%
    17:00 +27°C° 1.6 mm 1 mps 654 mmHg 52%
    18:00 +26°C° 1.6 mm 1 mps 654 mmHg 61%
    19:00 +24°C° 1.6 mm 1 mps 654 mmHg 70%
    20:00 +24°C° 3.4 mm 1 mps 654 mmHg 72%
    21:00 +23°C° 3.4 mm 1 mps 655 mmHg 75%
    22:00 +23°C° 3.4 mm 1 mps 655 mmHg 78%
    23:00 +22°C° 2.8 mm 1 mps 655 mmHg 80%

    Day after tomorrow, 24 October, Wednesday

    Time Temperature Precipitation Wind Pressure Humidity
    00:00 +22°C° 2.8 mm 1 mps 655 mmHg 82%
    01:00 +22°C° 2.8 mm 1 mps 655 mmHg 83%
    02:00 +22°C° 1.7 mm 1 mps 655 mmHg 84%
    03:00 +21°C° 1.7 mm 1 mps 654 mmHg 84%
    04:00 +21°C° 1.7 mm 1 mps 654 mmHg 85%
    05:00 +21°C° 0.4 mm 1 mps 654 mmHg 83%
    06:00 +22°C° 0.4 mm 1 mps 655 mmHg 81%
    07:00 +22°C° 0.4 mm 1 mps 655 mmHg 79%
    08:00 +24°C° 0.9 mm 1 mps 655 mmHg 72%
    09:00 +26°C° 0.9 mm 1 mps 656 mmHg 64%
    10:00 +28°C° 0.9 mm 1 mps 656 mmHg 57%
    11:00 +28°C° 1.2 mm 1 mps 656 mmHg 54%
    12:00 +29°C° 1.2 mm 1 mps 655 mmHg 52%
    13:00 +30°C° 1.2 mm 1 mps 655 mmHg 50%
    14:00 +28°C° 2.7 mm 1 mps 654 mmHg 56%
    15:00 +26°C° 2.7 mm 2 mps 653 mmHg 62%
    16:00 +25°C° 2.7 mm 2 mps 652 mmHg 68%
    17:00 +24°C° 1.5 mm 2 mps 653 mmHg 72%
    18:00 +23°C° 1.5 mm 2 mps 653 mmHg 75%
    19:00 +23°C° 1.5 mm 1 mps 654 mmHg 79%
    20:00 +22°C° 0.9 mm 1 mps 654 mmHg 80%
    21:00 +22°C° 0.9 mm 1 mps 655 mmHg 81%
    22:00 +22°C° 0.9 mm 1 mps 655 mmHg 82%
    23:00 +22°C° 0.3 mm 1 mps 655 mmHg 84%

    25 October, Thursday

    Time Temperature Precipitation Wind Pressure Humidity
    00:00 +21°C° 0.3 mm 1 mps 654 mmHg 85%
    01:00 +21°C° 0.3 mm 1 mps 653 mmHg 86%
    02:00 +21°C° 0.1 mm 1 mps 653 mmHg 86%
    03:00 +21°C° 0.1 mm 1 mps 653 mmHg 87%
    04:00 +20°C° 0.1 mm 1 mps 653 mmHg 88%
    05:00 +20°C° 0.1 mm 2 mps 653 mmHg 85%
    06:00 +20°C° 0.1 mm 2 mps 653 mmHg 83%
    07:00 +20°C° 0.1 mm 3 mps 654 mmHg 81%
    08:00 +22°C° 0.1 mm 3 mps 654 mmHg 73%
    09:00 +23°C° 0.1 mm 4 mps 655 mmHg 64%
    10:00 +26°C° 0.1 mm 4 mps 655 mmHg 56%
    11:00 +27°C° 0.4 mm 4 mps 655 mmHg 53%
    12:00 +28°C° 0.4 mm 4 mps 655 mmHg 51%
    13:00 +28°C° 0.4 mm 4 mps 654 mmHg 48%
    14:00 +28°C° 1.2 mm 3 mps 654 mmHg 50%
    15:00 +27°C° 1.2 mm 3 mps 653 mmHg 52%
    16:00 +27°C° 1.2 mm 3 mps 653 mmHg 54%
    17:00 +25°C° 1 mm 3 mps 653 mmHg 61%
    18:00 +24°C° 1 mm 3 mps 654 mmHg 67%
    19:00 +23°C° 1 mm 2 mps 654 mmHg 73%
    20:00 +21°C° 0.2 mm 2 mps 655 mmHg 75%
    21:00 +21°C° 0.2 mm 2 mps 655 mmHg 77%
    22:00 +21°C° 0.2 mm 2 mps 655 mmHg 80%
    23:00 +20°C° 0.1 mm 2 mps 655 mmHg 80%

    26 October, Friday

    Time Temperature Precipitation Wind Pressure Humidity
    00:00 +20°C° 0.1 mm 2 mps 655 mmHg 81%
    01:00 +20°C° 0.1 mm 2 mps 654 mmHg 81%
    02:00 +20°C° 0.4 mm 2 mps 654 mmHg 81%
    03:00 +19°C° 0.4 mm 2 mps 654 mmHg 82%
    04:00 +19°C° 0.4 mm 2 mps 654 mmHg 82%
    05:00 +20°C° 0 mm 2 mps 654 mmHg 79%
    06:00 +20°C° 0 mm 2 mps 655 mmHg 77%
    07:00 +21°C° 0 mm 3 mps 655 mmHg 74%
    08:00 +24°C° 0.1 mm 3 mps 656 mmHg 65%
    09:00 +26°C° 0.1 mm 4 mps 656 mmHg 56%
    10:00 +28°C° 0.1 mm 4 mps 657 mmHg 47%
    11:00 +28°C° 0.2 mm 4 mps 656 mmHg 45%
    12:00 +29°C° 0.2 mm 4 mps 655 mmHg 43%
    13:00 +29°C° 0.2 mm 4 mps 655 mmHg 41%
    14:00 +29°C° 0 mm 3 mps 655 mmHg 41%
    15:00 +29°C° 0 mm 3 mps 654 mmHg 40%
    16:00 +29°C° 0 mm 3 mps 654 mmHg 40%
    17:00 +28°C° 0.3 mm 2 mps 654 mmHg 46%
    18:00 +26°C° 0.3 mm 2 mps 655 mmHg 52%
    19:00 +25°C° 0.3 mm 2 mps 655 mmHg 58%
    20:00 +24°C° 0.4 mm 1 mps 655 mmHg 62%
    21:00 +23°C° 0.4 mm 1 mps 655 mmHg 66%
    22:00 +23°C° 0.4 mm 1 mps 655 mmHg 70%
    23:00 +22°C° 0 mm 1 mps 655 mmHg 71%

    27 October, Saturday

    Time Temperature Precipitation Wind Pressure Humidity
    00:00 +20°C° 0 mm 0 mps 655 mmHg 72%
    01:00 +20°C° 0 mm 0 mps 654 mmHg 74%
    02:00 +19°C° 0 mm 0 mps 654 mmHg 75%
    03:00 +21°C° 0 mm 1 mps 654 mmHg 76%
    04:00 +20°C° 0 mm 1 mps 654 mmHg 77%
    05:00 +21°C° 0 mm 1 mps 654 mmHg 73%
    06:00 +22°C° 0 mm 1 mps 655 mmHg 70%
    07:00 +23°C° 0 mm 1 mps 655 mmHg 67%
    08:00 +26°C° 0 mm 1 mps 656 mmHg 56%
    09:00 +28°C° 0 mm 2 mps 656 mmHg 46%
    10:00 +31°C° 0 mm 3 mps 656 mmHg 35%
    11:00 +32°C° 0 mm 2 mps 656 mmHg 32%
    12:00 +34°C° 0 mm 2 mps 655 mmHg 29%
    13:00 +36°C° 0 mm 2 mps 655 mmHg 25%
    14:00 +35°C° 0 mm 2 mps 654 mmHg 27%
    15:00 +34°C° 0 mm 1 mps 654 mmHg 28%
    16:00 +33°C° 0 mm 1 mps 654 mmHg 29%
    17:00 +31°C° 0 mm 1 mps 654 mmHg 33%
    18:00 +29°C° 0 mm 1 mps 654 mmHg 38%
    19:00 +28°C° 0 mm 1 mps 654 mmHg 42%
    20:00 +27°C° 0.2 mm 1 mps 654 mmHg 48%
    21:00 +26°C° 0.2 mm 1 mps 654 mmHg 53%
    22:00 +25°C° 0.2 mm 2 mps 655 mmHg 59%
    23:00 +24°C° 0.1 mm 1 mps 654 mmHg 61%

    28 October, Sunday

    Time Temperature Precipitation Wind Pressure Humidity
    00:00 +24°C° 0.1 mm 1 mps 654 mmHg 64%
    01:00 +23°C° 0.1 mm 1 mps 653 mmHg 67%
    02:00 +23°C° 0 mm 1 mps 653 mmHg 68%
    03:00 +23°C° 0 mm 1 mps 653 mmHg 68%
    04:00 +22°C° 0 mm 1 mps 653 mmHg 69%
    05:00 +23°C° 0 mm 1 mps 653 mmHg 66%
    06:00 +24°C° 0 mm 1 mps 654 mmHg 63%
    07:00 +25°C° 0 mm 1 mps 654 mmHg 61%
    08:00 +27°C° 0 mm 1 mps 655 mmHg 51%
    09:00 +30°C° 0 mm 2 mps 655 mmHg 41%
    10:00 +34°C° 0 mm 2 mps 656 mmHg 31%
    11:00 +35°C° 0 mm 2 mps 655 mmHg 28%
    12:00 +36°C° 0 mm 3 mps 655 mmHg 25%
    13:00 +37°C° 0 mm 3 mps 654 mmHg 22%
    14:00 +37°C° 0 mm 3 mps 654 mmHg 23%
    15:00 +36°C° 0 mm 2 mps 653 mmHg 24%
    16:00 +36°C° 0 mm 2 mps 653 mmHg 24%
    17:00 +33°C° 0 mm 1 mps 653 mmHg 27%
    18:00 +31°C° 0 mm 1 mps 653 mmHg 30%
    19:00 +29°C° 0 mm 1 mps 653 mmHg 33%
    20:00 +28°C° 0 mm 1 mps 653 mmHg 39%
    21:00 +27°C° 0 mm 2 mps 653 mmHg 44%
    22:00 +26°C° 0 mm 2 mps 653 mmHg 49%
    23:00 +26°C° 0 mm 2 mps 653 mmHg 53%
    Show more